GW3666 Weather Reports


Display with metric or nautical units.
time (UTC)temp
F
wind
direction
speed
MPH
gust
MPH
rain 1hr
in
rain 24hr
in
rain mn
in
humidity
%
barometer
mb
20260507014808 59 240 0.0 1.0 0.00 0.00 0.00 82 1020.4
20260507014304 59 322 2.0 3.0 0.00 0.00 0.00 82 1020.2
20260507013800 59 308 3.0 5.0 0.00 0.00 0.00 81 1020.3
20260507013258 59 323 5.0 7.0 0.00 0.00 0.00 81 1020.1
20260507012755 59 310 1.0 2.0 0.00 0.00 0.00 81 1020.3
20260507012250 59 323 5.0 6.0 0.00 0.00 0.00 80 1020.4
20260507011749 60 345 0.0 1.0 0.00 0.00 0.00 80 1020.1
20260507011245 60 280 0.0 1.0 0.00 0.00 0.00 80 1020.1
20260507010744 60 312 2.0 2.0 0.00 0.00 0.00 79 1020.1
20260507010241 60 289 1.0 1.0 0.00 0.00 0.00 80 1020.2
20260507005738 60 311 1.0 1.0 0.00 0.00 0.00 81 1020.3
20260507005235 60 41 2.0 3.0 0.00 0.00 0.00 80 1020.3
20260507004731 61 300 2.0 3.0 0.00 0.00 0.00 79 1020.3
20260507004229 61 295 2.0 2.0 0.00 0.00 0.00 78 1020.4
20260507003725 61 300 3.0 3.0 0.00 0.00 0.00 77 1020.0
20260507003220 61 230 0.0 0.0 0.00 0.00 0.00 79 1020.1
20260507002717 60 321 2.0 2.0 0.00 0.00 0.00 79 1020.4
20260507002213 61 316 2.0 5.0 0.00 0.00 0.00 81 1020.4
20260507001710 61 295 7.0 8.0 0.00 0.00 0.00 79 1020.3
20260507001207 61 288 4.0 7.0 0.00 0.00 0.00 78 1020.6
20260507000703 62 303 6.0 9.0 0.00 0.00 0.00 78 1020.6
20260507000159 61 309 1.0 2.0 0.00 0.00 0.00 79 1020.2
20260506235656 62 324 4.0 5.0 0.00 0.00 0.00 78 1020.3
20260506235151 62 10 4.0 5.0 0.00 0.00 0.00 78 1020.3
20260506234649 62 322 5.0 10.0 0.00 0.00 0.00 78 1020.2
20260506234146 63 326 6.0 8.0 0.00 0.00 0.00 76 1020.2
20260506233643 63 309 1.0 2.0 0.00 0.00 0.00 77 1020.2
20260506233140 62 112 2.0 2.0 0.00 0.00 0.00 76 1020.2
20260506232636 63 215 1.0 1.0 0.00 0.00 0.00 76 1020.3
20260506232131 63 305 4.0 6.0 0.00 0.00 0.00 76 1020.2
20260506231629 63 144 1.0 2.0 0.00 0.00 0.00 75 1020.0
20260506231127 64 316 3.0 6.0 0.00 0.00 0.00 73 1020.4
20260506230624 63 26 1.0 1.0 0.00 0.00 0.00 77 1020.2
20260506230121 63 320 3.0 5.0 0.00 0.00 0.00 76 1020.2
20260506225617 64 298 1.0 2.0 0.00 0.00 0.00 76 1020.3
20260506225114 63 113 1.0 3.0 0.00 0.00 0.00 76 1020.4
20260506224610 63 290 3.0 3.0 0.00 0.00 0.00 76 1020.1
20260506224107 63 357 2.0 2.0 0.00 0.00 0.00 76 1020.2
20260506223603 62 0 0.0 0.0 0.00 0.00 0.00 76 1020.3
20260506223059 62 332 4.0 5.0 0.00 0.00 0.00 78 1020.4
20260506222556 62 276 4.0 5.0 0.00 0.00 0.00 77 1020.3
20260506222052 61 303 3.0 5.0 0.00 0.00 0.00 79 1020.6
20260506221550 62 275 5.0 6.0 0.00 0.00 0.00 77 1020.4
20260506221048 62 227 4.0 5.0 0.00 0.00 0.00 76 1020.4
20260506220544 63 317 3.0 5.0 0.00 0.00 0.00 77 1020.7
20260506220039 64 108 1.0 2.0 0.00 0.00 0.00 75 1020.6
20260506215537 63 293 1.0 1.0 0.00 0.00 0.00 76 1020.8
20260506215032 63 129 3.0 3.0 0.00 0.00 0.00 74 1020.4
20260506214529 64 327 2.0 3.0 0.00 0.00 0.00 75 1020.8
20260506214027 64 32 0.0 1.0 0.00 0.00 0.00 75 1020.8
20260506213525 64 153 2.0 2.0 0.00 0.00 0.00 75 1020.7
20260506213022 63 301 1.0 1.0 0.00 0.00 0.00 77 1020.4
20260506212518 64 152 1.0 1.0 0.00 0.00 0.00 76 1020.7
20260506212013 63 90 0.0 1.0 0.00 0.00 0.00 76 1020.6
20260506211509 63 140 2.0 2.0 0.00 0.00 0.00 76 1020.6
20260506211007 63 67 4.0 6.0 0.00 0.00 0.00 75 1020.8
20260506210503 63 325 2.0 3.0 0.00 0.00 0.00 77 1020.9
20260506205959 63 336 6.0 9.0 0.00 0.00 0.00 77 1020.9
20260506205455 63 122 3.0 5.0 0.00 0.00 0.00 78 1020.7
20260506204946 63 162 3.0 5.0 0.00 0.00 0.00 79 1020.8
20260506204444 61 230 0.0 1.0 0.00 0.00 0.00 81 1020.8
20260506203941 60 10 4.0 5.0 0.00 0.00 0.00 82 1020.7
20260506203438 61 87 2.0 5.0 0.00 0.00 0.00 82 1020.8
20260506202935 61 211 1.0 1.0 0.00 0.00 0.00 82 1020.6
20260506202433 61 298 2.0 3.0 0.00 0.00 0.00 82 1020.6
20260506201929 62 270 7.0 9.0 0.00 0.00 0.00 80 1020.6
20260506201427 62 247 2.0 3.0 0.00 0.00 0.00 83 1020.7
20260506200923 62 207 4.0 6.0 0.00 0.00 0.00 80 1020.4
20260506200419 61 227 3.0 5.0 0.00 0.00 0.00 83 1020.3
20260506195916 60 174 2.0 3.0 0.00 0.00 0.00 84 1020.6
20260506195413 61 231 5.0 7.0 0.00 0.00 0.00 83 1020.4
20260506194909 61 279 5.0 6.0 0.00 0.00 0.00 83 1020.4
20260506194407 61 329 4.0 5.0 0.00 0.00 0.00 84 1020.4
20260506193904 61 199 3.0 5.0 0.00 0.00 0.00 83 1020.4
20260506193401 61 215 1.0 2.0 0.00 0.00 0.00 89 1020.2
20260506192856 60 194 2.0 2.0 0.00 0.00 0.00 87 1020.3
20260506192353 60 354 3.0 5.0 0.00 0.00 0.00 86 1020.4
20260506191850 60 206 3.0 3.0 0.00 0.00 0.00 86 1020.6
20260506191346 61 262 6.0 7.0 0.00 0.00 0.00 86 1020.7
20260506190838 61 202 4.0 8.0 0.00 0.00 0.00 86 1020.4
20260506190334 61 329 5.0 6.0 0.00 0.00 0.00 85 1020.4
20260506185831 60 157 3.0 3.0 0.00 0.00 0.00 87 1020.4
20260506185328 60 301 11.0 14.0 0.00 0.00 0.00 86 1020.2
20260506184825 60 23 3.0 5.0 0.00 0.00 0.00 87 1020.2
20260506184323 60 216 1.0 1.0 0.00 0.00 0.00 86 1019.8
20260506183820 60 6 7.0 8.0 0.00 0.00 0.00 86 1019.9
20260506183315 61 323 4.0 5.0 0.00 0.00 0.00 85 1019.8
20260506182813 60 326 1.0 1.0 0.00 0.00 0.00 87 1019.8
20260506182309 60 336 4.0 6.0 0.00 0.00 0.00 87 1019.8
20260506181801 61 281 3.0 3.0 0.00 0.00 0.00 86 1020.1
20260506181259 60 311 3.0 3.0 0.00 0.00 0.00 87 1020.1
20260506180756 60 340 1.0 1.0 0.00 0.00 0.00 86 1020.2
20260506180252 59 321 2.0 2.0 0.00 0.00 0.00 88 1019.7
20260506175748 59 301 2.0 3.0 0.00 0.00 0.00 88 1019.8
20260506175245 59 326 0.0 0.0 0.00 0.00 0.00 90 1019.8
20260506174743 58 344 1.0 2.0 0.00 0.00 0.00 93 1019.8
20260506174239 57 332 3.0 3.0 0.00 0.00 0.00 94 1019.9
20260506173737 56 311 0.0 1.0 0.00 0.00 0.00 95 1020.0
20260506173234 56 333 0.0 1.0 0.00 0.00 0.00 95 1020.0
20260506172731 56 269 4.0 5.0 0.00 0.00 0.00 95 1020.0
20260506172227 56 301 2.0 2.0 0.00 0.00 0.00 95 1020.1
20260506171725 56 268 3.0 3.0 0.00 0.00 0.00 95 1020.2
20260506171222 56 340 3.0 3.0 0.00 0.00 0.00 95 1020.0
20260506170720 56 323 2.0 3.0 0.00 0.00 0.00 96 1020.1
20260506170216 56 335 2.0 2.0 0.00 0.00 0.00 95 1020.0
20260506165715 56 315 3.0 5.0 0.00 0.00 0.00 95 1020.1
20260506165211 56 333 2.0 2.0 0.00 0.00 0.00 95 1020.0
20260506164708 56 319 0.0 0.0 0.00 0.00 0.00 95 1019.7
20260506164205 56 317 3.0 3.0 0.00 0.00 0.00 94 1019.9
20260506163702 56 324 4.0 5.0 0.00 0.00 0.00 93 1019.7
20260506163157 56 345 2.0 3.0 0.00 0.00 0.00 92 1019.8
20260506162653 57 206 0.0 0.0 0.00 0.00 0.00 92 1019.5
20260506162151 56 274 0.0 0.0 0.00 0.00 0.00 94 1019.6
20260506161648 56 346 1.0 2.0 0.00 0.00 0.00 94 1019.8
20260506161144 56 352 0.0 0.0 0.00 0.00 0.00 95 1019.6
20260506160642 55 337 1.0 3.0 0.00 0.00 0.00 94 1019.9
20260506160139 55 316 0.0 0.0 0.00 0.00 0.00 95 1019.8
20260506155637 55 330 0.0 0.0 0.00 0.00 0.00 95 1019.8
20260506155134 55 239 0.0 0.0 0.00 0.00 0.00 94 1019.7
20260506153236 55 270 0.0 0.0 0.00 0.00 0.00 94 1019.7
20260506152733 55 314 4.0 6.0 0.00 0.00 0.00 94 1019.5
20260506152230 55 282 0.0 0.0 0.00 0.00 0.00 95 1019.8
20260506151730 55 265 0.0 0.0 0.00 0.00 0.00 94 1019.8
20260506151226 55 227 0.0 0.0 0.00 0.00 0.00 95 1019.6
20260506150722 55 237 0.0 0.0 0.00 0.00 0.00 95 1019.9
20260506150219 55 247 0.0 0.0 0.00 0.00 0.00 95 1019.7
20260506145717 55 297 0.0 0.0 0.00 0.00 0.00 95 1019.6
20260506145213 55 303 1.0 2.0 0.00 0.00 0.00 95 1019.6
20260506144710 55 325 0.0 0.0 0.00 0.00 0.00 95 1019.4
20260506144207 55 103 0.0 0.0 0.00 0.00 0.00 96 1019.1
20260506143705 54 72 0.0 0.0 0.00 0.00 0.00 96 1019.1
20260506143202 54 145 2.0 2.0 0.00 0.00 0.00 96 1019.4
20260506142701 54 101 0.0 0.0 0.00 0.00 0.00 97 1019.6
20260506142158 54 328 0.0 0.0 0.00 0.00 0.00 98 1019.4
20260506141656 54 318 0.0 0.0 0.00 0.00 0.00 98 1019.5
20260506141154 54 15 0.0 0.0 0.00 0.00 0.00 98 1019.5
20260506140651 54 350 0.0 0.0 0.00 0.00 0.00 98 1019.7
20260506140148 54 101 0.0 0.0 0.00 0.00 0.00 98 1019.3
20260506135645 54 287 0.0 0.0 0.00 0.00 0.00 98 1019.6
20260506135141 54 341 0.0 0.0 0.00 0.00 0.00 98 1019.6
20260506134638 54 209 0.0 0.0 0.00 0.00 0.00 98 1019.6
20260506134134 54 324 0.0 0.0 0.00 0.00 0.00 98 1019.6
20260506133631 54 309 0.0 0.0 0.00 0.00 0.00 98 1019.4
20260506133128 54 307 0.0 0.0 0.00 0.00 0.00 98 1019.5
20260506132626 54 314 0.0 0.0 0.00 0.00 0.00 98 1019.5
20260506132122 54 321 0.0 0.0 0.00 0.00 0.00 98 1019.2
20260506131620 54 285 0.0 0.0 0.00 0.00 0.00 98 1018.9
20260506131116 54 317 0.0 0.0 0.00 0.00 0.00 98 1019.1
20260506130613 54 299 0.0 0.0 0.00 0.00 0.00 98 1019.0
20260506130110 54 8 0.0 0.0 0.00 0.00 0.00 98 1019.0
20260506125609 54 342 0.0 0.0 0.00 0.00 0.00 98 1019.0
20260506125106 54 342 0.0 0.0 0.00 0.00 0.00 98 1019.1
20260506124603 54 198 0.0 0.0 0.00 0.00 0.00 98 1019.0
20260506124101 54 315 0.0 0.0 0.00 0.00 0.00 98 1019.0
20260506123559 54 309 0.0 0.0 0.00 0.00 0.00 98 1018.9
20260506123057 54 258 0.0 0.0 0.00 0.00 0.00 98 1018.8
20260506122553 54 314 0.0 0.0 0.00 0.00 0.00 98 1018.8
20260506122051 54 304 0.0 0.0 0.00 0.00 0.00 98 1018.9
20260506121549 54 313 0.0 0.0 0.00 0.00 0.00 97 1018.7
20260506121044 54 316 0.0 0.0 0.00 0.00 0.00 97 1018.7
20260506120543 54 314 0.0 0.0 0.00 0.00 0.00 97 1018.6
20260506120040 54 332 0.0 0.0 0.00 0.00 0.00 97 1018.6
20260506115538 54 295 0.0 0.0 0.00 0.00 0.00 97 1018.7
20260506115036 54 320 0.0 0.0 0.00 0.00 0.00 97 1018.5
20260506114533 54 309 0.0 0.0 0.00 0.00 0.00 97 1018.6
20260506114032 54 321 0.0 0.0 0.00 0.00 0.00 97 1018.6
20260506113529 54 306 0.0 0.0 0.00 0.00 0.00 97 1018.6
20260506113026 54 349 0.0 0.0 0.00 0.00 0.00 97 1018.7
20260506112522 54 332 0.0 0.0 0.00 0.00 0.00 96 1018.6
20260506112020 54 327 0.0 0.0 0.00 0.00 0.00 96 1018.5
20260506111518 54 254 0.0 0.0 0.00 0.00 0.00 96 1018.5
20260506111015 54 293 0.0 0.0 0.00 0.00 0.00 96 1018.5
20260506110513 54 315 0.0 0.0 0.00 0.00 0.00 96 1018.5
20260506110010 54 337 0.0 0.0 0.00 0.00 0.00 96 1018.4
20260506105505 54 139 0.0 0.0 0.00 0.00 0.00 95 1018.4
20260506105003 55 96 0.0 0.0 0.00 0.00 0.00 95 1018.3
20260506104501 55 346 0.0 0.0 0.00 0.00 0.00 95 1018.3
20260506103959 55 309 0.0 0.0 0.00 0.00 0.00 95 1018.4
20260506103455 55 333 0.0 0.0 0.00 0.00 0.00 95 1018.4
20260506102952 55 90 0.0 0.0 0.00 0.00 0.00 95 1018.0
20260506102450 54 316 0.0 0.0 0.00 0.00 0.00 96 1018.3
20260506101948 54 305 0.0 0.0 0.00 0.00 0.00 96 1018.1
20260506101444 54 350 0.0 0.0 0.00 0.00 0.00 97 1018.1
20260506100941 54 321 0.0 0.0 0.00 0.00 0.00 97 1017.9
20260506100439 54 277 0.0 0.0 0.00 0.00 0.00 97 1017.9
20260506095937 54 276 0.0 0.0 0.00 0.00 0.00 97 1017.8
20260506095436 54 38 0.0 0.0 0.00 0.00 0.00 98 1017.8
20260506094931 54 314 0.0 0.0 0.00 0.00 0.00 98 1017.9
20260506094430 54 276 0.0 0.0 0.00 0.00 0.00 99 1017.7
20260506093927 54 309 0.0 0.0 0.00 0.00 0.00 99 1017.8
20260506093425 54 2 0.0 0.0 0.00 0.00 0.00 99 1017.8
20260506092923 53 20 0.0 0.0 0.00 0.00 0.00 99 1017.9
20260506092421 53 20 0.0 0.0 0.00 0.00 0.00 99 1017.8
20260506091917 53 20 0.0 0.0 0.00 0.00 0.00 99 1017.9
20260506091415 53 20 0.0 0.0 0.00 0.00 0.00 99 1017.7
20260506090912 53 304 0.0 0.0 0.00 0.00 0.00 99 1017.8
20260506090409 53 303 0.0 0.0 0.00 0.00 0.00 99 1017.7
20260506085906 53 303 0.0 0.0 0.00 0.00 0.00 99 1017.9
20260506085403 53 344 0.0 0.0 0.00 0.00 0.00 99 1017.8
20260506084859 53 344 0.0 0.0 0.00 0.00 0.00 99 1017.4
20260506084356 53 345 0.0 0.0 0.00 0.00 0.00 99 1017.3
20260506083852 52 35 0.0 0.0 0.00 0.00 0.00 99 1017.6
20260506083350 52 293 0.0 0.0 0.00 0.00 0.00 99 1017.4
20260506082847 52 324 0.0 0.0 0.00 0.00 0.00 99 1017.5
20260506082343 51 345 0.0 0.0 0.00 0.00 0.00 99 1017.5
20260506081834 51 345 0.0 0.0 0.00 0.00 0.00 99 1017.3
20260506081332 51 345 0.0 0.0 0.00 0.00 0.00 99 1017.4
20260506080829 51 345 0.0 0.0 0.00 0.00 0.00 98 1017.5
20260506080325 52 334 0.0 0.0 0.00 0.00 0.00 99 1017.3
20260506073310 53 1 0.0 0.0 0.00 0.00 0.00 98 1017.1
20260506072806 53 38 0.0 0.0 0.00 0.00 0.00 98 1017.0
20260506072306 53 317 0.0 0.0 0.00 0.00 0.00 97 1016.9
20260506071802 53 358 0.0 0.0 0.00 0.00 0.00 97 1016.9
20260506071300 53 330 0.0 0.0 0.00 0.00 0.00 98 1017.1
20260506070756 53 292 0.0 0.0 0.00 0.00 0.00 97 1016.8
20260506070253 53 298 0.0 0.0 0.00 0.00 0.00 97 1016.7
20260506062230 54 57 0.0 0.0 0.00 0.00 0.00 99 1016.7
20260506061726 53 12 0.0 0.0 0.00 0.00 0.00 99 1016.7
20260506061223 53 358 0.0 0.0 0.00 0.00 0.00 99 1016.3
20260506060722 53 229 0.0 0.0 0.00 0.00 0.00 99 1016.5
20260506060218 53 352 0.0 0.0 0.00 0.00 0.00 99 1016.1
20260506051151 51 304 0.0 0.0 0.00 0.00 0.00 99 1016.2
20260506050649 51 304 0.0 0.0 0.00 0.00 0.00 99 1016.1
20260506050146 51 304 0.0 0.0 0.00 0.00 0.00 99 1016.4
20260506044637 52 257 0.0 0.0 0.00 0.00 0.00 99 1016.1
20260506044134 52 257 0.0 0.0 0.00 0.00 0.00 98 1016.4
20260506043631 53 257 0.0 0.0 0.00 0.00 0.00 98 1016.2
20260506043129 53 257 0.0 0.0 0.00 0.00 0.00 98 1016.1
20260506042628 53 257 0.0 0.0 0.00 0.00 0.00 97 1016.2
20260506042125 53 257 0.0 0.0 0.00 0.00 0.00 97 1016.1
20260506041623 54 257 0.0 0.0 0.00 0.00 0.00 97 1015.9
20260506041114 55 257 0.0 0.0 0.00 0.00 0.00 97 1016.0
20260506040612 55 257 0.0 0.0 0.00 0.00 0.00 95 1016.0
20260506040109 55 257 0.0 0.0 0.00 0.00 0.00 94 1015.9
20260506035606 55 257 0.0 0.0 0.00 0.00 0.00 93 1015.9
20260506035102 56 257 0.0 0.0 0.00 0.00 0.00 93 1015.7
20260506034600 57 257 0.0 0.0 0.00 0.00 0.00 92 1015.8
20260506034056 57 257 0.0 0.0 0.00 0.00 0.00 92 1015.6
20260506033554 58 270 0.0 0.0 0.00 0.00 0.00 90 1015.4
20260506033050 58 271 0.0 0.0 0.00 0.00 0.00 90 1015.7
20260506032548 59 318 0.0 0.0 0.00 0.00 0.00 89 1015.5
20260506032044 59 318 0.0 0.0 0.00 0.00 0.00 88 1015.3
20260506031542 60 318 0.0 0.0 0.00 0.00 0.00 87 1015.3
20260506031039 60 318 0.0 0.0 0.00 0.00 0.00 85 1015.2
20260506030537 61 318 0.0 0.0 0.00 0.00 0.00 84 1015.2
20260506030034 62 318 0.0 0.0 0.00 0.00 0.00 83 1015.3
20260506025531 62 279 3.0 5.0 0.00 0.00 0.00 82 1015.2
20260506025027 62 317 0.0 0.0 0.00 0.00 0.00 82 1015.4
20260506024524 62 313 1.0 1.0 0.00 0.00 0.00 82 1015.1
20260506024020 63 354 0.0 1.0 0.00 0.00 0.00 81 1015.2
20260506023516 63 321 5.0 6.0 0.00 0.00 0.00 80 1015.3
20260506023015 63 308 1.0 1.0 0.00 0.00 0.00 80 1015.4
20260506022511 64 341 3.0 5.0 0.00 0.00 0.00 78 1015.1
20260506022009 64 326 2.0 2.0 0.00 0.00 0.00 78 1015.0
20260506021506 64 321 3.0 3.0 0.00 0.00 0.00 78 1015.1
20260506021003 64 330 3.0 3.0 0.00 0.00 0.00 78 1015.1
20260506020501 64 352 0.0 1.0 0.00 0.00 0.00 78 1015.0
20260506015957 64 307 4.0 6.0 0.00 0.00 0.00 79 1015.1
20260506015455 64 322 2.0 2.0 0.00 0.00 0.00 78 1015.1